This is the latest recevied weather packets stored in our database for station/object KC3QLX. If no packets are shown the sender has not sent any weather packets the latest 10 day(s).
| Time | Temp. | Humidity | Pressure | Rain* | Wind** | Luminosity | Snow |
|---|---|---|---|---|---|---|---|
| 1778152871 | 7.22° C | 93% | 1011.9 hPa | 0 mm | - | 36 W/m² | - |
| 1778152568 | 7.22° C | 92% | 1011.7 hPa | 0 mm | - | 35 W/m² | - |
| 1778152265 | 7.22° C | 93% | 1011.9 hPa | 0 mm | - | 32 W/m² | - |
| 1778151961 | 7.22° C | 93% | 1011.8 hPa | 0 mm | - | 32 W/m² | - |
| 1778151658 | 7.22° C | 92% | 1011.6 hPa | 0 mm | - | 30 W/m² | - |
| 1778151354 | 7.22° C | 95% | 1011.7 hPa | 0 mm | - | 29 W/m² | - |
| 1778151050 | 7.22° C | 94% | 1011.6 hPa | 0 mm | - | 28 W/m² | - |
| 1778150748 | 7.22° C | 93% | 1011.6 hPa | 0 mm | - | 24 W/m² | - |
| 1778150444 | 7.22° C | 95% | 1011.5 hPa | 0 mm | - | 21 W/m² | - |
| 1778150140 | 7.22° C | 94% | 1011.5 hPa | 0 mm | - | 21 W/m² | - |
| 1778149837 | 7.78° C | 93% | 1011.2 hPa | 0 mm | - | 19 W/m² | - |
| 1778149534 | 7.78° C | 92% | 1010.8 hPa | 0 mm | - | 17 W/m² | - |
| 1778149230 | 7.78° C | 91% | 1011 hPa | 0 mm | - | 11 W/m² | - |
| 1778148926 | 8.33° C | 89% | 1010.9 hPa | 0 mm | - | 7 W/m² | - |
| 1778148622 | 8.33° C | 88% | 1010.7 hPa | 0 mm | - | 5 W/m² | - |
| 1778148320 | 8.33° C | 87% | 1010.6 hPa | 0 mm | - | 2 W/m² | - |
| 1778148018 | 8.33° C | 89% | 1010.6 hPa | 0 mm | - | 0 W/m² | - |
| 1778147715 | 7.78° C | 88% | 1010.7 hPa | 0 mm | - | 0 W/m² | - |
| 1778147412 | 7.78° C | 92% | 1010.7 hPa | 0 mm | - | 0 W/m² | - |
| 1778147108 | 8.33° C | 92% | 1010.5 hPa | 0 mm | - | 0 W/m² | - |
| 1778146805 | 7.78° C | 90% | 1010.4 hPa | 0 mm | - | 0 W/m² | - |
| 1778146502 | 7.78° C | 91% | 1010.5 hPa | 0 mm | - | 0 W/m² | - |
| 1778146201 | 7.78° C | 92% | 1010.4 hPa | 0 mm | - | 0 W/m² | - |
| 1778145896 | 8.33° C | 94% | 1010.4 hPa | 0 mm | - | 0 W/m² | - |
| 1778145588 | 8.33° C | 94% | 1010.6 hPa | 0 mm | - | 0 W/m² | - |
* Rain latest hour (hover to see other rain measurements)
** Current wind speed in m/s (hover to see current wind gust speed)